CDT,Max TemperatureF,Mean TemperatureF,Min TemperatureF,Max Dew PointF,MeanDew PointF,Min DewpointF,Max Humidity, Mean Humidity, Min Humidity, Max Sea Level PressureIn, Mean Sea Level PressureIn, Min Sea Level PressureIn, Max VisibilityMiles, Mean VisibilityMiles, Min VisibilityMiles, Max Wind SpeedMPH, Mean Wind SpeedMPH, Max Gust SpeedMPH,PrecipitationIn, CloudCover, Events, WindDirDegrees
2013-5-1,46,38,30,32,24,19,80,64,52,30.48,30.23,29.86,10,10,10,16,10,23,0.00,5,,291
2013-5-2,39,34,28,21,20,19,74,60,45,30.55,30.50,30.46,10,10,10,12,5,22,0.00,4,,348
2013-5-3,35,30,26,30,25,19,100,80,56,30.45,30.32,30.23,10,8,2,9,4,,0.05,5,Rain-Snow,28
2013-5-4,35,32,28,34,31,28,100,95,87,30.24,30.23,30.20,10,8,1,7,4,,0.08,8,Rain-Snow,33
2013-5-5,48,40,33,39,36,34,100,89,71,30.23,30.17,30.12,10,7,0,6,2,,0.00,7,Fog-Rain,39
2013-5-6,71,50,30,46,40,30,100,72,35,30.13,30.08,30.01,10,8,0,9,2,,0.00,2,Fog,281
2013-5-7,75,54,33,45,38,32,100,55,22,30.07,30.01,29.94,10,10,10,12,3,20,0.00,2,,193
2013-5-8,75,56,37,48,41,34,100,63,25,30.05,30.00,29.96,10,10,1,9,2,16,0.00,3,Rain,262
2013-5-9,55,44,30,46,31,18,100,65,23,30.22,30.15,30.05,10,9,2,10,5,17,0.00,3,Rain,37
2013-5-10,57,39,21,39,19,9,100,51,14,30.22,30.05,29.86,10,10,5,14,3,20,0.03,1,Rain,169
2013-5-11,41,37,33,37,26,19,93,68,48,30.11,29.98,29.90,10,10,2,23,11,38,0.00,7,Rain-Snow,319
2013-5-12,46,36,26,21,16,12,80,46,25,30.14,30.10,30.08,10,10,10,18,8,26,0.00,3,,324
2013-5-13,55,37,19,30,22,16,93,53,22,30.09,29.92,29.69,10,10,10,20,4,25,0.00,1,Rain,166
2013-5-14,78,54,30,48,37,27,87,54,25,29.71,29.56,29.35,10,10,10,23,7,33,0.00,1,Rain,194
2013-5-15,71,58,44,46,39,30,87,51,23,29.83,29.75,29.55,10,10,10,22,12,31,0.00,1,Rain,290
2013-5-16,69,50,30,37,31,25,100,51,20,30.04,29.97,29.84,10,10,7,8,2,,0.00,0,,53
2013-5-17,64,54,44,37,33,28,76,48,27,30.11,30.08,30.04,10,10,10,15,6,18,0.00,4,Rain,111
2013-5-18,53,50,46,54,47,34,100,86,50,30.06,29.95,29.87,10,8,2,10,5,,0.31,8,Rain,134
2013-5-19,60,54,48,57,53,48,100,94,88,29.88,29.83,29.78,10,7,1,12,4,18,0.35,7,Rain-Thunderstorm,63
2013-5-20,53,50,48,52,48,46,94,91,87,29.79,29.71,29.65,10,9,2,17,11,29,0.98,8,Rain,80
2013-5-21,46,44,42,45,43,41,100,96,93,29.85,29.76,29.71,10,7,2,12,8,18,0.43,8,Rain,42
2013-5-22,66,54,42,43,39,27,100,66,24,30.10,29.91,29.83,10,10,7,14,8,23,0.03,4,Rain,41
2013-5-23,57,47,35,36,26,19,81,47,23,30.33,30.27,30.11,10,10,10,12,7,20,0.00,0,,39
2013-5-24,66,47,28,34,28,23,93,48,19,30.38,30.31,30.23,10,10,10,9,2,17,0.00,0,,206
2013-5-25,62,52,42,36,32,27,70,45,31,30.32,30.29,30.26,10,10,10,14,5,18,0.00,2,,132
2013-5-26,66,50,33,36,32,25,93,49,26,30.32,30.24,30.16,10,10,10,16,4,21,0.00,0,,142
2013-5-27,68,52,35,39,34,27,93,47,30,30.15,30.02,29.89,10,10,10,20,5,25,0.00,2,,130
2013-5-28,69,54,39,46,40,34,87,58,43,29.89,29.78,29.71,10,10,10,15,5,18,0.00,3,,133
2013-5-29,78,63,48,59,50,37,94,64,34,29.79,29.75,29.73,10,10,5,13,5,18,0.39,5,Rain,203
2013-5-30,73,65,57,63,60,55,94,85,69,29.74,29.66,29.58,10,10,5,17,7,17,0.03,6,Rain-Thunderstorm,118
2013-5-31,78,66,55,61,55,46,94,75,34,29.58,29.55,29.50,10,10,5,23,8,34,0.10,5,Rain-Thunderstorm,157